Home   Weather   Rabat   Past weeks

Flag for Morocco Past Weather in Rabat, Morocco — Yesterday and Last 2 Weeks

Now
45 °F

Passing clouds.


Feels Like: 45 °F
Forecast: N/A
Wind: 1 mph from North

Location: Rabat-Sale

Current Time: Jan 17, 2017 at 9:49:00 pm

Latest Report: Jan 17, 2017 at 9:00 pm


Visibility: N/A

Pressure: 30.09 "Hg

Humidity: 93%

Dew Point: 43 °F

Location of RabatLocation

Past Weather in Rabat — Graph

°F

Rabat Temperature Yesterday

Maximum temperature yesterday: 59 °F (at 12:00 pm)
Minimum temperature yesterday: 30 °F (at 6:30 am)
Average temperature yesterday: 46 °F

High & Low Weather Summary for the Past Weeks

 TemperatureHumidityPressure
High73 °F (Jan 3, 1:00 pm)100% (Jan 9, 12:00 am)30.33 "Hg (Jan 9, 12:00 am)
Low30 °F (Jan 16, 6:30 am)16% (Jan 3, 3:00 pm)30.09 "Hg (Jan 17, 3:30 pm)
Average53 °F72%30.23 "Hg
* Reported Jan 2 8:00 pm — Jan 17 8:30 pm, Rabat, Weather by CustomWeather, © 2017

Note: Actual official high and low records may vary slightly from our data, if they occured in-between our weather recording intervals... More about our weather records

Advertising

Rabat Weather History for the Previous 24 Hours

Scroll right to see more
 ConditionsComfort  
Time TempWeatherWind HumidityBarometerVisibility
8:30 pm
Tue, Jan 17
45 °FPassing clouds.2 mph93%30.09 "HgN/A
8:00 pm45 °FPassing clouds.1 mph87%30.09 "HgN/A
7:30 pm46 °FPassing clouds.No wind87%30.09 "HgN/A
7:00 pm48 °FPassing clouds.No wind87%30.09 "HgN/A
6:30 pm52 °FPassing clouds.No wind82%30.09 "HgN/A
6:00 pm55 °FPassing clouds.No wind72%30.09 "HgN/A
5:30 pm59 °FPassing clouds.2 mph63%30.09 "HgN/A
5:00 pm59 °FPassing clouds.6 mph63%30.09 "HgN/A
4:30 pm61 °FScattered clouds.7 mph68%30.09 "HgN/A
4:00 pm59 °FScattered clouds.7 mph72%30.09 "HgN/A
3:30 pm61 °FPassing clouds.7 mph68%30.09 "HgN/A
3:00 pm59 °FPassing clouds.8 mph72%30.12 "HgN/A
2:30 pm61 °FPassing clouds.8 mph63%30.12 "HgN/A
2:00 pm61 °FPassing clouds.8 mph63%30.12 "HgN/A
1:30 pm61 °FPassing clouds.7 mph63%30.12 "HgN/A
1:00 pm61 °FPassing clouds.6 mph59%30.15 "HgN/A
12:30 pm61 °FPassing clouds.3 mph59%30.15 "HgN/A
12:00 pm61 °FPassing clouds.3 mph52%30.15 "HgN/A
11:30 am59 °FPassing clouds.3 mph59%30.18 "HgN/A
11:00 am59 °FPassing clouds.3 mph59%30.18 "HgN/A
10:30 am57 °FSunny.6 mph59%30.18 "Hg10 mi
10:00 am54 °FSunny.6 mph67%30.18 "Hg10 mi
9:30 am52 °FClear.2 mph67%30.18 "Hg6 mi
9:00 am46 °FClear.3 mph71%30.18 "Hg6 mi
8:30 am45 °FClear.3 mph71%30.18 "Hg6 mi
8:00 am43 °FClear.5 mph76%30.18 "Hg6 mi
7:30 am43 °FClear.3 mph76%30.18 "Hg6 mi
7:00 am43 °FSunny.2 mph81%30.18 "Hg10 mi
6:30 am43 °FPassing clouds.3 mph81%30.18 "HgN/A
6:00 am43 °FClear.2 mph76%30.15 "Hg10 mi
5:30 am43 °FPassing clouds.3 mph81%30.15 "HgN/A
5:00 am43 °FPassing clouds.3 mph81%30.15 "HgN/A
4:30 am43 °FClear.2 mph76%30.15 "Hg10 mi
4:00 am45 °FPassing clouds.3 mph76%30.18 "HgN/A
3:30 am45 °FPassing clouds.3 mph76%30.18 "HgN/A
3:00 am45 °FPassing clouds.3 mph81%30.18 "HgN/A
2:30 am45 °FQuite cool.3 mph81%30.18 "HgN/A
2:00 am43 °FClear.2 mph87%30.18 "Hg10 mi
1:30 am45 °FPassing clouds.3 mph81%30.18 "HgN/A
1:00 am45 °FPassing clouds.3 mph81%30.18 "HgN/A
12:30 am45 °FPassing clouds.3 mph81%30.18 "HgN/A
12:00 am45 °FPassing clouds.3 mph81%30.21 "HgN/A
11:30 pm
Mon, Jan 16
45 °FPassing clouds.3 mph81%30.21 "HgN/A
11:00 pm46 °FPassing clouds.3 mph76%30.21 "HgN/A
10:30 pm45 °FPassing clouds.5 mph81%30.21 "HgN/A
10:00 pm45 °FPassing clouds.5 mph81%30.21 "HgN/A
9:30 pm46 °FPassing clouds.3 mph76%30.21 "HgN/A
9:00 pm41 °FClear.2 mph87%30.21 "Hg10 mi
Weather by CustomWeather, © 2017

See weather overviewHow to use our weather pages